Location: Piotrkow Trybunalski
(51.4000°N, 19.6830°E)
Time: 22:22:25
(UTC+01:00)

ISS - Visible Passes

Search period start: 30 November 2022 00:00
Search period end: 10 December 2022 00:00
Orbit: 415 x 420 km, 51.6° (Epoch: 30 November)

Date Brightness Start Highest point End Pass type
(mag) Time Alt. Az. Time Alt. Az. Time Alt. Az.
30 Nov -3.8 17:03:57 10° W 17:07:19 89° NNE 17:09:13 24° E visible
30 Nov -1.1 18:40:48 10° W 18:42:09 21° W 18:42:09 21° W visible
01 Dec -3.8 16:15:56 10° W 16:19:18 84° N 16:22:40 10° E visible
01 Dec -3.2 17:52:45 10° W 17:56:01 51° SSW 17:56:13 50° S visible
02 Dec -3.5 17:04:43 10° W 17:08:03 67° SSW 17:10:23 18° ESE visible
02 Dec -0.9 18:41:53 10° W 18:43:19 17° WSW 18:43:19 17° WSW visible
03 Dec -3.7 16:16:42 10° W 16:20:04 81° SSW 16:23:25 10° ESE visible
03 Dec -2.0 17:53:39 10° W 17:56:35 28° SSW 17:57:38 23° S visible
04 Dec -2.5 17:05:32 10° W 17:08:42 39° SSW 17:11:49 10° SE visible
05 Dec -2.9 16:17:29 10° W 16:20:45 52° SSW 16:24:01 10° SE visible
05 Dec -0.8 17:55:05 10° WSW 17:56:59 14° SW 17:58:52 10° S visible
06 Dec -1.1 17:06:36 10° W 17:09:10 21° SW 17:11:45 10° SSE visible
07 Dec -1.6 16:18:22 10° W 16:21:19 29° SSW 16:24:16 10° SSE visible
09 Dec -0.5 16:19:46 10° WSW 16:21:44 15° SW 16:23:42 10° S visible
